This demonstration page uses our WeatherBlox Daily Observations layout. Learn more.

Left ArrowRight Arrow

36.19886, -115.1175

Hourly Observations for March 8, 2017

Temp ( °F °C ) Dew Point ( °F °C ) Humidity (%) Winds ( mph kmh ) Pressure ( in mb ) Visibility ( mi km ) Precip ( " mm )
12:53 am 00:53 Clear 51 10.6 23 -5 33 33 WNW 3 6 30.26 1025 10 16 N/A
1:53 am 01:53 Clear 52 11.1 20 -6.7 28 28 N 6 9 30.25 1024 10 16 N/A
2:53 am 02:53 Clear 52 11.1 20 -6.7 28 28 NW 12 19 30.23 1024 10 16 N/A
3:53 am 03:53 Clear 53 11.7 18 -7.8 25 25 NNW 10 17 30.23 1024 10 16 N/A
4:53 am 04:53 Clear 52 11.1 19 -7.2 27 27 NNW 12 19 30.24 1024 10 16 N/A
5:53 am 05:53 Clear 50 10 20 -6.7 30 30 NW 8 13 30.26 1025 10 16 N/A
6:53 am 06:53 Sunny 50 10 23 -5 35 35 N N/A 30.27 1025 10 16 N/A
7:53 am 07:53 Sunny 57 13.9 21 -6.1 25 25 N 6 9 30.27 1025 10 16 N/A
8:53 am 08:53 Sunny 61 16.1 21 -6.1 21 21 NNW 6 9 30.27 1025 10 16 N/A
9:53 am 09:53 Sunny 65 18.3 19 -7.2 17 17 NNE 5 7 30.26 1025 10 16 N/A
10:53 am 10:53 Sunny 65 18.3 21 -6.1 19 19 E 3 6 30.25 1024 10 16 N/A
11:53 am 11:53 Sunny 69 20.6 19 -7.2 15 15 N N/A 30.22 1023 10 16 N/A
12:53 pm 12:53 Sunny 70 21.1 20 -6.7 15 15 ESE 5 7 30.19 1022 10 16 N/A
1:53 pm 13:53 Sunny 73 22.8 18 -7.8 12 12 E 6 9 30.16 1021 10 16 N/A
2:53 pm 14:53 Sunny 72 22.2 20 -6.7 14 14 N N/A 30.14 1021 10 16 N/A
3:53 pm 15:53 Sunny 74 23.3 21 -6.1 14 14 N N/A 30.12 1020 10 16 N/A
4:53 pm 16:53 Sunny 73 22.8 22 -5.6 15 15 SE 3 6 30.11 1020 10 16 N/A
5:53 pm 17:53 Clear 69 20.6 24 -4.4 18 18 N N/A 30.12 1020 10 16 N/A
6:53 pm 18:53 Clear 69 20.6 24 -4.4 18 18 N N/A 30.13 1020 10 16 N/A
7:53 pm 19:53 Clear 65 18.3 29 -1.7 26 26 WNW 6 9 30.14 1021 10 16 N/A
8:53 pm 20:53 Clear 62 16.7 31 -0.6 31 31 WNW 7 11 30.15 1021 10 16 N/A
9:53 pm 21:53 Clear 60 15.6 31 -0.6 33 33 NW 8 13 30.15 1021 10 16 N/A
10:53 pm 22:53 Clear 60 15.6 31 -0.6 33 33 WNW 6 9 30.14 1021 10 16 N/A
11:53 pm 23:53 Clear 58 14.4 31 -0.6 36 36 WNW 7 11 30.14 1021 10 16 N/A

Powered by AerisWeather